#timestamp,LO_Frequency,Hit 
1505466015.2,286046995.0,N
1505466035.1,286046995.9,N
1505466036.0,286046995.9,N
1505466055.8,286046996.9,N
1505466075.6,286046999.5,N
1505466095.5,286046994.5,N
1505466115.3,286046999.6,N
1505466135.1,286046996.5,N
1505466155.9,286046995.0,N
1505466175.7,286046998.6,N
1505466195.5,286046997.0,N
1505466215.4,286046994.9,N
1505466235.2,286046999.2,N
1505466255.0,286046995.7,N
1505466255.9,286046995.7,N
1505466275.7,286046999.1,N
1505466295.6,286046999.5,N
1505466315.4,286046998.6,N
1505466335.2,286046998.7,N
1505466355.1,286046999.3,N
1505466356.0,286046999.3,N
1505466375.8,286047001.5,N
1505466395.6,286046999.9,N
1505466415.5,286047001.0,N
1505466435.3,286046999.4,N
1505466455.1,286046996.1,N
1505466475.9,286046998.2,N
1505466495.7,286046997.8,N
1505466515.5,286046997.4,N
1505466535.4,286046996.6,N
1505466555.2,286046999.4,N
1505466575.0,286046997.5,N
1505466575.9,286046997.5,N
1505466595.8,286046997.3,N
1505466615.6,286046995.4,N
1505466635.4,286046992.8,P
1505466655.3,286046997.1,N
1505466675.1,286047001.1,N
1505466676.0,286047001.1,N
1505466695.8,286046997.7,N
1505466715.7,286046998.7,N
1505466735.5,286046996.0,N
1505466755.3,286046996.0,N
1505466775.1,286047000.9,N
1505466795.9,286047000.1,N
1505466815.7,286047002.6,N
1505466835.5,286046998.1,N
1505466855.4,286046999.2,N
1505466875.2,286046997.4,N
1505466895.0,286046999.8,N
1505466895.9,286046999.8,N
1505466915.8,286046996.8,N
1505466935.6,286046994.9,N
1505466955.4,286046995.7,N
1505466975.3,286047000.4,N
1505466995.1,286046998.7,N
1505466996.0,286046998.7,N
1505467015.8,286047001.1,N
1505467035.7,286046998.2,N
1505467055.5,286046997.0,N
1505467075.3,286046999.2,N
1505467095.2,286047001.2,N
1505467115.9,286047000.2,N
1505467135.7,286047007.6,P
1505467155.6,286047004.7,N
1505467175.4,286047003.9,N
1505467195.2,286047005.9,N
1505467215.1,286047005.4,N
1505467216.0,286047005.4,N
1505467235.8,286047004.9,N
1505467255.6,286047005.2,N
1505467275.5,286047003.2,N
1505467295.3,286047003.3,N
1505467315.1,286047002.7,N
1505467335.8,286047001.8,N
1505467355.7,286047002.4,N
1505467375.5,286046998.7,N
1505467395.3,286047000.0,N
1505467415.2,286047000.2,N
1505467435.9,286047004.3,N
1505467455.7,286047002.5,N
1505467475.6,286047001.8,N
1505467495.4,286047000.7,N
1505467515.2,286047002.3,N
1505467535.1,286047002.1,N
1505467536.0,286047002.1,N
1505467555.8,286046996.7,N
1505467575.6,286047001.5,N
1505467595.5,286047002.4,N
1505467615.3,286047001.3,N
1505467635.1,286047002.7,N
1505467655.9,286047001.4,N
1505467675.7,286047000.6,N
1505467695.5,286047002.2,N
1505467715.3,286046998.2,N
1505467735.2,286046999.6,N
1505467755.0,286046998.6,N
1505467755.9,286046998.6,N
1505467775.7,286046999.5,N
1505467795.6,286046997.9,N
1505467815.4,286046997.2,N
1505467835.2,286046998.8,N
1505467855.1,286046999.4,N
1505467856.0,286046999.4,N
1505467875.8,286046997.8,N
1505467895.6,286046996.1,N
1505467915.5,286046997.7,N
1505467935.3,286046997.0,N
1505467955.1,286046997.7,N
1505467975.9,286046991.7,P
1505467995.7,286046995.0,N
1505468015.5,286046994.5,N
1505468035.4,286046992.2,N
1505468055.2,286046996.3,N
1505468075.0,286046991.8,P
1505468075.9,286046991.8,P
1505468095.8,286047003.6,N
1505468115.6,286046999.9,N
1505468135.4,286047000.0,N
1505468155.3,286047001.9,N
1505468175.1,286047001.3,N
1505468195.8,286047002.6,N
1505468215.7,286047007.4,N
1505468235.5,286047001.4,N
1505468255.3,286047004.4,N
1505468275.2,286047005.9,N
1505468295.9,286047005.3,N
1505468315.7,286047006.7,N
1505468335.6,286047006.5,N
1505468355.4,286047004.4,N
1505468375.2,286047001.7,N
1505468395.0,286047003.1,N
1505468395.9,286047003.1,N
1505468415.8,286047007.4,N
1505468435.6,286047005.4,N
1505468455.4,286047008.8,N
1505468475.3,286047007.6,N
1505468495.1,286047004.8,N
1505468515.8,286047001.9,N
1505468535.7,286047004.9,N
1505468555.5,286047006.4,N
1505468575.3,286047003.8,N
1505468595.2,286047004.1,N
1505468615.9,286047003.2,N
1505468635.7,286047004.1,N
1505468655.6,286047005.9,N
1505468675.4,286047002.2,N
1505468695.2,286046999.0,N
1505468715.0,286047001.2,N
1505468716.0,286047001.2,N
1505468735.8,286047002.4,N
1505468755.6,286047000.6,N
1505468775.4,286047001.0,N
1505468795.3,286047000.4,N
1505468815.1,286046998.6,N
1505468835.8,286046998.1,N
1505468855.7,286047001.8,N
1505468875.5,286047000.2,N
1505468895.3,286047001.1,N
1505468915.2,286046999.8,N
1505468935.9,286047001.3,N
1505468955.7,286047001.5,N
1505468975.6,286047004.5,N
1505468995.4,286047002.9,N
1505469015.2,286047004.3,N
1505469035.1,286047003.9,N
1505469036.0,286047003.9,N
1505469055.8,286047005.4,N
1505469075.6,286047002.4,N
1505469095.5,286047001.3,N
1505469115.3,286047000.4,N
1505469135.1,286047004.2,N
1505469155.8,286047002.1,N
1505469175.7,286047001.2,N
1505469195.5,286047002.7,N
1505469215.3,286046999.3,N
1505469235.2,286046997.7,N
1505469255.9,286046998.5,N
1505469275.7,286046999.9,N
1505469295.6,286047004.3,N
1505469315.4,286047003.0,N
1505469335.2,286047004.3,N
1505469355.1,286047000.5,N
1505469356.0,286047000.5,N
1505469375.8,286046998.4,N
1505469395.6,286047000.4,N
1505469415.5,286046996.6,N
1505469435.3,286046995.9,N
1505469455.1,286046996.5,N
1505469475.8,286046996.6,N
1505469495.7,286046998.7,N
1505469515.5,286046996.7,N
1505469535.3,286046996.6,N
1505469555.2,286047000.5,N
1505469575.9,286047007.4,N
1505469595.7,286047008.6,N
